Weather History for Merced, CA

Change the Weather History Date:

Wednesday, July 24, 2013

  Actual Average Record
Temperature  
Mean Temperature 83 °F 78 °F  
Max Temperature 101 °F 95 °F 111 °F (2006)
Min Temperature 64 °F 61 °F 54 °F (1999)
Degree Days  
Heating Degree Days 0    
Month to date heating degree days 0  
Since 1 June heating degree days 0  
Since 1 July heating degree days 0  
Cooling Degree Days 18    
Month to date cooling degree days 408  
Year to date cooling degree days 1001  
Since 1 June cooling degree days 764  
Growing Degree Days 32 (Base 50)    
Moisture  
Dew Point 49 °F    
Average Humidity 41    
Maximum Humidity 63    
Minimum Humidity 19    
Precipitation  
Precipitation 0.00 in 0.00 in 0.01 in (2007)
Month to date precipitation T 0.00  
Year to date precipitation 2.78 8.68  
Since 1 July precipitation T 0.00  
Snow  
Snow 0.00 in - - ()
Month to date snowfall 0.0  
Since 1 June snowfall 0.0  
Since 1 July snowfall 0.0  
Snow Depth 0.00 in    
Sea Level Pressure  
Sea Level Pressure 29.88 in    
Wind  
Wind Speed 6 mph (NW)    
Max Wind Speed 16 mph    
Max Gust Speed -    
Visibility 10 miles    
Events      
T = Trace of Precipitation, MM = Missing Value Source: NWS Daily Summary

Daily Weather History Graph

Daily Weather History Graph

Search for Another Location

Airport:

Trip Planner

Search our weather history database for the weather conditions in past years. The results will help you decide how hot, cold, wet, or windy it might be!

Date:

Astronomy

Jul. 24, 2013 Rise Set
Actual Time 6:00 AM PDT 8:16 PM PDT
Civil Twilight 5:30 AM PDT 8:45 PM PDT
Nautical Twilight 4:54 AM PDT 9:21 PM PDT
Astronomical Twilight 4:15 AM PDT 10:01 PM PDT
Moon 9:30 PM PDT (7/24) 8:22 AM PDT (7/24)
Length of Visible Light 15h 14m
Length of Day
14h 15m
Waning Gibbous, 94% of the Moon is Illuminated
Jul 24
Waning Gibbous
Jul 29
Last Quarter
Aug 6
New
Aug 14
First Quarter
Aug 20
Full

Hourly Weather History & Observations

Time (PDT) Temp. Heat Index Dew Point Humidity Pressure Visibility Wind Dir Wind Speed Gust Speed Precip Events Conditions
12:53 AM 73.9 °F - 42.1 °F 32% 29.90 in 10.0 mi NW 3.5 mph - N/A   Clear
1:53 AM 73.0 °F - 42.1 °F 33% 29.89 in 10.0 mi WNW 3.5 mph - N/A   Clear
2:53 AM 73.0 °F - 42.1 °F 33% 29.88 in 10.0 mi WNW 10.4 mph - N/A   Clear
3:53 AM 70.0 °F - 44.1 °F 39% 29.88 in 10.0 mi NW 3.5 mph - N/A   Clear
4:53 AM 66.9 °F - 46.0 °F 47% 29.89 in 10.0 mi Calm Calm - N/A   Clear
5:53 AM 64.9 °F - 52.0 °F 63% 29.91 in 10.0 mi Calm Calm - N/A   Clear
6:53 AM 68.0 °F - 48.0 °F 49% 29.92 in 10.0 mi NNW 4.6 mph - N/A   Clear
7:53 AM 73.9 °F - 46.0 °F 37% 29.93 in 10.0 mi NW 5.8 mph - N/A   Clear
8:53 AM 81.0 °F - 46.9 °F 30% 29.93 in 10.0 mi NNW 5.8 mph - N/A   Clear
9:53 AM 84.9 °F - 37.0 °F 18% 29.93 in 10.0 mi NW 10.4 mph - N/A   Clear
10:53 AM 87.1 °F - 46.0 °F 24% 29.93 in 10.0 mi WNW 6.9 mph - N/A   Clear
11:53 AM 89.1 °F - 48.0 °F 24% 29.92 in 10.0 mi Variable 5.8 mph - N/A   Clear
12:53 PM 91.9 °F - 48.0 °F 22% 29.90 in 10.0 mi NW 6.9 mph - N/A   Clear
1:53 PM 96.1 °F 93.5 °F 53.1 °F 23% 29.88 in 10.0 mi WNW 8.1 mph - N/A   Clear
2:53 PM 98.1 °F - 52.0 °F 21% 29.86 in 10.0 mi WNW 8.1 mph - N/A   Clear
3:53 PM 99.0 °F 96.5 °F 53.1 °F 21% 29.84 in 10.0 mi WNW 10.4 mph - N/A   Clear
4:53 PM 100.0 °F 98.3 °F 55.0 °F 22% 29.82 in 10.0 mi NW 13.8 mph - N/A   Clear
5:53 PM 99.0 °F 97.7 °F 55.9 °F 24% 29.80 in 10.0 mi NNW 15.0 mph - N/A   Clear
6:53 PM 97.0 °F 94.6 °F 54.0 °F 23% 29.81 in 10.0 mi NNW 12.7 mph - N/A   Clear
7:53 PM 93.0 °F 91.1 °F 55.0 °F 28% 29.81 in 10.0 mi NNW 9.2 mph - N/A   Clear
8:53 PM 88.0 °F 86.1 °F 55.0 °F 32% 29.83 in 10.0 mi NNW 9.2 mph - N/A   Clear
9:53 PM 87.1 °F - 51.1 °F 29% 29.84 in 10.0 mi NNW 11.5 mph - N/A   Clear
10:53 PM 82.9 °F - 52.0 °F 34% 29.85 in 10.0 mi North 9.2 mph - N/A   Clear
11:53 PM 81.0 °F - 51.1 °F 35% 29.85 in 10.0 mi North 9.2 mph - N/A   Clear